PBO Station Position Time Series. Reference Frame : NAM14
Format Version,1.1.0
4-character ID,YONC
Station name,Yoncalla
Begin Date, 2009-08-03
End Date, 2019-01-19
Release Date, 2019-08-30
Reference position, 43.6341115537 North Latitude, -123.2983008794 East Longitude, 86.91024 meters elevation,
Date, North (mm), East (mm), Vertical (mm), North Std. Deviation (mm), East Std. Deviation (mm),              Vertical Std. Deviation (mm), Quality,
2009-08-03,0.00, 0.00, 0.00, 3.83, 2.66, 11.77, repro,
2009-08-04,1.40, -1.31, -4.95, 2.13, 1.55, 7.02, repro,
2009-08-05,1.70, 0.01, -5.52, 2.18, 1.55, 7.13, repro,
2009-08-06,0.29, 1.13, 2.01, 2.14, 1.54, 7.02, repro,
2009-08-07,1.71, 1.05, 1.40, 3.41, 2.54, 11.45, repro,
2009-08-08,1.57, 1.30, -7.45, 2.18, 1.56, 7.13, repro,
2009-08-09,2.95, 0.59, -6.21, 2.16, 1.58, 7.14, repro,
2009-08-10,2.01, 0.62, -8.73, 2.13, 1.53, 6.97, repro,
2009-08-11,3.13, 1.07, -1.38, 2.16, 1.55, 7.06, repro,
2009-08-12,3.12, 0.68, 4.68, 2.13, 1.54, 7.00, repro,
2009-08-13,0.17, -1.36, 10.99, 2.20, 1.59, 7.22, repro,
2009-08-14,2.00, 0.17, -11.39, 2.13, 1.52, 6.91, repro,
2009-08-15,1.13, -0.70, -2.52, 2.13, 1.53, 6.92, repro,
2009-08-16,1.81, -0.56, 2.57, 2.21, 1.56, 7.13, repro,
2009-08-17,0.05, 1.55, 1.65, 2.16, 1.54, 7.01, repro,
2009-08-18,1.24, 0.46, 9.87, 2.17, 1.55, 7.03, repro,
2009-08-19,2.99, 0.85, -3.78, 2.25, 1.66, 7.51, repro,
2009-08-20,2.71, 0.64, -7.66, 2.15, 1.56, 7.03, repro,
2009-08-27,2.65, 0.75, -7.24, 2.19, 1.58, 7.14, repro,
2009-08-28,1.92, 1.35, -7.56, 2.17, 1.56, 7.06, repro,
2009-08-29,0.52, 1.96, -5.94, 2.13, 1.55, 6.95, repro,
2009-08-30,1.65, 0.24, -1.70, 2.14, 1.54, 6.95, repro,
2009-08-31,0.48, 1.53, -10.55, 2.14, 1.54, 6.97, repro,
2009-09-01,0.08, 2.45, 1.00, 2.19, 1.57, 7.13, repro,
2009-09-02,0.41, -0.33, -0.35, 2.14, 1.55, 6.98, repro,
2009-09-03,0.25, 0.81, 0.74, 2.21, 1.61, 7.35, repro,
2009-09-04,0.92, 0.74, -0.74, 2.14, 1.55, 7.00, repro,
2009-09-05,0.33, 0.96, -4.80, 2.16, 1.59, 7.20, repro,
2009-09-06,2.16, 0.90, -0.14, 2.19, 1.58, 7.20, repro,
2009-09-07,-0.16, 0.20, -8.51, 2.17, 1.56, 7.14, repro,
2009-09-08,-0.32, -0.04, -5.54, 2.15, 1.56, 7.04, repro,
2009-09-09,-0.51, 0.44, 2.79, 2.13, 1.55, 7.03, repro,
2009-09-10,0.76, -0.64, -1.87, 2.14, 1.55, 7.05, repro,
2009-09-11,0.27, 0.23, -8.67, 2.19, 1.57, 7.03, repro,
2009-09-12,2.82, 0.91, -5.58, 2.12, 1.53, 6.90, repro,
2009-09-13,-0.51, 0.66, 10.96, 2.17, 1.58, 7.14, repro,
2009-09-14,1.43, 0.54, 8.08, 2.11, 1.54, 6.93, repro,
2009-09-15,0.55, 1.24, -3.69, 2.11, 1.53, 6.92, repro,
2009-09-16,0.81, 0.83, 1.87, 2.14, 1.54, 7.02, repro,
2009-09-17,0.42, -0.32, -11.25, 2.14, 1.56, 7.05, repro,
2009-09-18,0.40, 0.51, -3.32, 2.18, 1.59, 7.24, repro,
2009-09-19,1.09, 0.18, 7.96, 2.14, 1.56, 7.01, repro,
2009-09-20,-0.12, 1.03, -6.37, 2.12, 1.54, 6.95, repro,
2009-09-21,1.36, 1.10, -3.62, 2.12, 1.54, 6.98, repro,
2009-09-22,0.87, 0.20, -9.89, 2.15, 1.56, 7.03, repro,
2009-09-23,1.29, 1.05, -10.96, 2.17, 1.58, 7.07, repro,
2009-09-24,0.37, 1.16, 0.60, 2.21, 1.59, 7.22, repro,
2009-09-25,0.86, -0.50, -5.55, 2.14, 1.57, 7.05, repro,
2009-09-26,-0.37, 0.57, -1.73, 2.13, 1.56, 7.07, repro,
2009-09-27,-0.45, 0.75, 1.44, 2.12, 1.54, 7.00, repro,
2009-09-28,0.33, 0.51, -0.26, 2.18, 1.56, 7.08, repro,
2009-09-29,-1.05, 0.59, 6.08, 2.18, 1.59, 7.17, repro,
2009-09-30,-0.71, 0.62, -1.63, 2.15, 1.60, 7.18, repro,
2009-10-01,1.42, 1.46, -5.05, 2.12, 1.54, 6.99, repro,
2009-10-02,-0.12, -0.44, -5.77, 2.12, 1.55, 7.02, repro,
2009-10-03,1.70, -0.47, -5.28, 2.15, 1.58, 7.17, repro,
2009-10-04,0.96, -0.00, -7.69, 2.20, 1.58, 7.17, repro,
2009-10-05,1.47, -0.78, -5.51, 2.13, 1.54, 6.99, repro,
2009-10-06,1.99, -0.07, 1.04, 2.11, 1.54, 6.98, repro,
2009-10-07,1.78, 0.65, -0.66, 2.12, 1.55, 7.03, repro,
2009-10-08,1.07, 0.31, 1.74, 2.21, 1.60, 7.16, repro,
2009-10-09,0.04, 0.79, -7.45, 2.11, 1.54, 6.95, repro,
2009-10-10,0.62, 0.27, -4.23, 2.12, 1.54, 6.99, repro,
2009-10-11,0.53, -0.44, 2.60, 2.12, 1.54, 6.99, repro,
2009-10-12,1.53, 0.87, 2.77, 2.23, 1.64, 7.49, repro,
2009-10-13,-0.12, 0.15, 9.88, 2.14, 1.59, 7.16, repro,
2009-10-14,-2.22, -0.95, 8.49, 2.16, 1.57, 7.16, repro,
2009-10-15,0.42, -0.15, -7.64, 2.15, 1.59, 7.12, repro,
2009-10-16,0.33, 1.12, -4.37, 2.16, 1.60, 7.19, repro,
2009-10-17,1.98, 2.44, -12.33, 2.20, 1.61, 7.32, repro,
2009-10-18,1.92, 2.84, -3.27, 2.16, 1.60, 7.18, repro,
2009-10-19,0.06, 0.50, 0.84, 2.20, 1.64, 7.31, repro,
2009-10-20,0.36, 1.52, -10.73, 2.19, 1.66, 7.41, repro,
2009-10-21,0.33, 0.89, -4.38, 2.17, 1.63, 7.34, repro,
2009-10-22,-0.43, 0.30, -0.08, 2.19, 1.63, 7.30, repro,
2009-10-23,1.18, 3.08, 1.13, 2.17, 1.62, 7.21, repro,
2009-10-24,-0.03, 1.68, 5.80, 2.20, 1.64, 7.31, repro,
2009-10-25,0.68, 1.49, -1.58, 2.18, 1.62, 7.22, repro,
2009-10-26,0.14, 1.07, 3.35, 2.19, 1.64, 7.37, repro,
2009-10-27,-0.30, -1.01, 5.46, 2.19, 1.64, 7.29, repro,
2009-10-28,-0.63, 1.00, 2.26, 2.14, 1.58, 7.10, repro,
2009-10-29,0.73, 0.04, -0.62, 2.14, 1.57, 7.09, repro,
2009-10-30,-0.53, 1.50, 1.46, 2.12, 1.58, 7.08, repro,
2009-10-31,0.86, 0.49, 8.20, 2.14, 1.59, 7.18, repro,
2009-11-01,1.43, 0.89, -0.78, 2.12, 1.56, 7.02, repro,
2009-11-02,0.09, 0.32, -6.78, 2.21, 1.60, 7.28, repro,
2009-11-03,0.55, 0.82, -9.70, 2.20, 1.60, 7.22, repro,
2009-11-04,0.61, 1.20, -0.96, 2.15, 1.59, 7.21, repro,
2009-11-05,-0.36, -0.26, 1.49, 2.20, 1.66, 7.42, repro,
2009-11-06,0.20, -0.59, -2.34, 2.29, 1.72, 7.87, repro,
2009-11-07,1.30, 2.75, -2.84, 2.16, 1.59, 7.15, repro,
2009-11-08,-0.64, 1.52, -5.15, 2.16, 1.60, 7.24, repro,
2009-11-09,2.17, 1.32, -2.51, 2.16, 1.63, 7.29, repro,
2009-11-10,0.87, 1.53, -0.37, 2.21, 1.67, 7.49, repro,
2009-11-11,0.34, 0.58, 1.13, 2.13, 1.60, 7.18, repro,
2009-11-12,2.25, 1.55, -2.12, 2.20, 1.68, 7.42, repro,
2009-11-13,0.54, 0.50, -1.51, 2.20, 1.64, 7.38, repro,
2009-11-14,1.79, 0.31, -1.90, 2.18, 1.62, 7.27, repro,
2009-11-15,0.74, 2.45, -5.73, 2.15, 1.61, 7.26, repro,
2009-11-16,2.29, 1.98, -3.99, 2.21, 1.64, 7.39, repro,
2009-11-17,-1.30, 2.85, 11.11, 2.23, 1.65, 7.45, repro,
2009-11-18,1.18, 2.68, -0.19, 2.31, 1.71, 7.56, repro,
2009-11-19,4.08, 1.41, 1.95, 2.18, 1.62, 7.27, repro,
2009-11-20,-1.29, -0.09, 6.88, 2.28, 1.67, 7.59, repro,
2009-11-21,1.03, 0.55, 7.66, 2.40, 1.74, 7.95, repro,
2009-11-22,0.67, 0.56, 3.24, 2.14, 1.62, 7.25, repro,
2009-11-23,0.56, 2.08, -2.65, 2.11, 1.56, 6.98, repro,
2009-11-24,1.07, 0.68, -15.66, 2.13, 1.59, 7.11, repro,
2009-11-25,1.08, 1.70, -9.40, 2.14, 1.59, 7.12, repro,
2009-11-26,2.12, 1.20, -12.40, 2.15, 1.59, 7.16, repro,
2009-11-27,1.45, 0.28, -1.59, 2.14, 1.60, 7.13, repro,
2009-11-28,1.43, 0.66, -13.07, 2.16, 1.61, 7.17, repro,
2009-11-29,2.29, 0.59, -12.94, 2.31, 1.64, 7.44, repro,
2009-11-30,1.41, 0.60, -5.09, 2.21, 1.58, 7.19, repro,
2009-12-01,2.33, 0.43, -8.78, 2.23, 1.59, 7.28, repro,
2009-12-02,2.67, 1.19, -5.95, 2.17, 1.58, 7.21, repro,
2009-12-03,1.55, 0.37, -7.20, 2.11, 1.54, 6.89, repro,
2009-12-04,0.97, 1.54, -6.55, 2.11, 1.55, 6.98, repro,
2009-12-05,1.79, 0.94, -5.93, 2.11, 1.54, 6.90, repro,
2009-12-06,2.30, 0.53, -1.91, 2.12, 1.54, 6.97, repro,
2009-12-07,2.60, 1.21, -2.85, 2.13, 1.55, 6.98, repro,
2009-12-08,1.59, 1.17, -2.63, 2.25, 1.66, 7.55, repro,
2009-12-09,1.04, 1.54, -4.51, 2.16, 1.61, 7.26, repro,
2009-12-10,0.64, 1.09, -1.63, 2.17, 1.57, 7.13, repro,
2009-12-11,1.98, 1.80, -4.53, 2.13, 1.58, 7.07, repro,
2009-12-12,1.54, 0.32, 2.42, 2.16, 1.61, 7.23, repro,
2009-12-13,2.18, 0.54, 0.81, 2.11, 1.54, 6.97, repro,
2009-12-14,1.69, 2.12, -8.42, 2.13, 1.57, 7.06, repro,
2009-12-15,0.95, 1.66, -0.02, 2.12, 1.54, 6.97, repro,
2009-12-16,0.17, 2.24, -12.38, 2.27, 1.62, 7.47, repro,
2009-12-17,1.12, 1.63, -8.49, 2.27, 1.65, 7.38, repro,
2009-12-18,0.48, 2.18, -9.90, 2.13, 1.54, 6.99, repro,
2009-12-19,0.28, 1.49, -9.28, 2.18, 1.60, 7.26, repro,
2009-12-20,1.13, 0.82, -9.72, 2.15, 1.59, 7.13, repro,
2009-12-21,-0.86, 0.75, -5.71, 2.18, 1.60, 7.23, repro,
2009-12-22,0.62, 0.60, -4.07, 2.15, 1.57, 7.04, repro,
2009-12-23,1.19, 2.01, -13.02, 2.13, 1.56, 7.04, repro,
2009-12-24,0.00, 2.23, -11.80, 2.21, 1.61, 7.25, repro,
2009-12-25,1.36, 1.45, -9.12, 2.11, 1.56, 6.99, repro,
2009-12-26,2.30, 2.17, -9.13, 2.30, 1.68, 7.78, repro,
2009-12-27,1.07, 2.35, -5.89, 2.14, 1.57, 7.03, repro,
2009-12-28,1.92, 1.65, -5.87, 2.07, 1.52, 6.86, repro,
2009-12-29,1.10, 3.24, -8.47, 2.09, 1.54, 6.97, repro,
2009-12-30,-0.44, 3.16, -4.23, 2.10, 1.54, 6.96, repro,
2009-12-31,1.59, 2.76, -14.61, 2.15, 1.55, 7.06, repro,
2010-01-01,1.47, 1.84, -12.34, 2.46, 1.78, 7.93, repro,
2010-01-02,0.98, 2.51, -13.13, 2.10, 1.54, 6.96, repro,
2010-01-03,-0.00, 2.35, -7.45, 2.22, 1.64, 7.50, repro,
2010-01-04,1.40, 3.78, -11.42, 2.08, 1.53, 6.93, repro,
2010-01-05,2.82, 1.96, -11.54, 2.18, 1.57, 7.17, repro,
2010-01-06,0.84, 2.55, -11.82, 2.11, 1.54, 6.97, repro,
2010-01-07,0.40, 2.45, -8.42, 2.12, 1.54, 7.02, repro,
2010-01-08,0.95, 1.88, -9.62, 2.14, 1.58, 7.16, repro,
2010-01-09,2.19, 3.76, -5.50, 2.10, 1.54, 7.00, repro,
2010-01-10,0.96, 3.40, -14.08, 2.11, 1.54, 7.03, repro,
2010-01-11,-0.09, 2.36, -8.31, 2.27, 1.62, 7.46, repro,
2010-01-12,0.75, 2.18, -7.79, 2.18, 1.61, 7.18, repro,
2010-01-13,0.61, 1.09, -15.45, 2.12, 1.58, 7.13, repro,
2010-01-14,-0.63, 2.91, -8.60, 2.15, 1.61, 7.32, repro,
2010-01-15,0.72, 2.73, -13.05, 2.15, 1.57, 7.15, repro,
2010-01-16,1.96, 1.85, -2.24, 2.09, 1.54, 6.96, repro,
2010-01-17,0.18, 2.69, -3.22, 2.12, 1.54, 6.98, repro,
2010-01-18,-1.93, 0.02, -4.49, 2.14, 1.58, 7.15, repro,
2010-01-19,0.49, 0.36, 1.24, 2.16, 1.56, 7.08, repro,
2010-01-20,-0.71, 0.52, 6.37, 2.24, 1.62, 7.26, repro,
2010-01-21,-0.37, 0.27, 7.13, 2.22, 1.61, 7.27, repro,
2010-01-22,0.85, 0.69, -1.18, 2.10, 1.54, 6.96, repro,
2010-01-23,-0.47, 0.97, -5.31, 2.11, 1.54, 6.94, repro,
2010-01-24,1.70, 2.90, -6.09, 2.11, 1.55, 6.99, repro,
2010-01-25,-0.01, 2.42, -6.32, 2.09, 1.54, 6.88, repro,
2010-01-26,1.21, 1.81, -7.42, 2.15, 1.59, 7.07, repro,
2010-01-27,1.61, 1.52, -16.81, 2.15, 1.58, 7.06, repro,
2010-01-28,-1.26, 2.47, -17.76, 2.12, 1.56, 7.07, repro,
2010-01-29,0.92, 1.12, -20.70, 2.33, 1.70, 7.76, repro,
2010-01-30,0.44, 1.64, -10.12, 2.13, 1.56, 6.98, repro,
2010-01-31,0.73, 1.57, -7.73, 2.10, 1.53, 6.94, repro,
2010-02-01,0.89, 2.02, -3.79, 2.13, 1.56, 6.95, repro,
2010-02-02,0.41, 1.30, -0.21, 2.17, 1.55, 7.12, repro,
2010-02-03,2.67, 2.33, 0.42, 2.14, 1.57, 7.14, repro,
2010-02-04,0.55, 1.35, 1.81, 2.18, 1.66, 7.28, repro,
2010-02-05,0.42, 2.77, -3.10, 2.15, 1.63, 7.15, repro,
2010-02-06,-0.02, 1.73, -6.10, 2.11, 1.56, 7.05, repro,
2010-02-07,0.80, 2.91, -4.65, 2.44, 1.75, 7.96, repro,
2010-02-08,-0.16, 1.30, -7.52, 2.18, 1.58, 7.15, repro,
2010-02-09,-0.29, 1.44, 0.74, 2.19, 1.59, 7.19, repro,
2010-02-10,-0.24, 2.11, -7.16, 2.19, 1.62, 7.18, repro,
2010-02-11,-0.12, 2.75, -2.95, 2.10, 1.57, 7.03, repro,
2010-02-12,-0.78, 2.34, -9.68, 2.12, 1.58, 7.11, repro,
2010-02-13,1.03, 2.97, -7.32, 2.11, 1.54, 6.96, repro,
2010-02-14,1.37, 2.34, -6.07, 2.12, 1.58, 7.09, repro,
2010-02-15,-1.38, 1.71, -6.37, 2.11, 1.57, 7.06, repro,
2010-02-16,-1.61, 2.37, -3.81, 2.39, 1.69, 7.74, repro,
2010-02-17,-0.91, 1.59, -11.41, 2.17, 1.61, 7.21, repro,
2010-02-18,1.13, 0.61, -12.16, 2.20, 1.62, 7.31, repro,
2010-02-19,0.69, 1.04, -13.18, 2.16, 1.56, 7.08, repro,
2010-02-20,-0.02, 0.35, -7.09, 2.09, 1.53, 6.91, repro,
2010-02-21,1.27, 1.53, -5.91, 2.06, 1.52, 6.85, repro,
2010-02-22,0.24, 1.75, -9.62, 2.15, 1.57, 7.07, repro,
2010-02-23,1.08, 0.88, -10.80, 2.18, 1.58, 7.18, repro,
2010-02-24,1.64, 2.64, -12.79, 2.20, 1.59, 7.13, repro,
2010-02-25,-0.41, 2.88, -6.93, 2.12, 1.56, 7.07, repro,
2010-02-26,-0.42, 1.36, -5.61, 2.11, 1.57, 7.07, repro,
2010-02-27,-0.18, 1.26, -6.47, 2.09, 1.54, 6.98, repro,
2010-02-28,0.55, 0.56, -8.00, 2.07, 1.51, 6.85, repro,
2010-03-01,0.74, 0.69, -11.34, 2.11, 1.56, 7.02, repro,
2010-03-02,0.37, 1.90, -9.43, 2.10, 1.52, 6.93, repro,
2010-03-03,0.14, -0.78, -5.13, 2.15, 1.58, 7.08, repro,
2010-03-04,-1.08, -0.15, -3.50, 2.11, 1.55, 6.96, repro,
2010-03-05,-0.34, -0.15, -7.92, 2.22, 1.59, 7.27, repro,
2010-03-06,0.32, -1.09, -9.87, 2.08, 1.51, 6.84, repro,
2010-03-07,-0.44, -0.38, -9.57, 2.09, 1.52, 6.87, repro,
2010-03-08,0.65, -1.61, -5.83, 2.09, 1.52, 6.87, repro,
2010-03-09,-1.19, -0.36, -8.65, 2.10, 1.52, 6.90, repro,
2010-03-10,-1.61, -0.51, -5.33, 2.08, 1.51, 6.85, repro,
2010-03-11,-0.28, -0.36, -3.25, 2.09, 1.51, 6.89, repro,
2010-03-12,-2.63, -1.26, -4.56, 2.09, 1.50, 6.84, repro,
2010-03-13,-0.99, -1.14, -10.19, 2.28, 1.71, 7.51, repro,
2010-03-14,-1.16, 0.07, -8.62, 2.19, 1.59, 7.40, repro,
2010-03-15,0.04, -0.91, -14.72, 2.10, 1.52, 6.94, repro,
2010-03-16,-0.64, -0.32, -11.45, 2.14, 1.54, 7.05, repro,
2010-03-17,-1.53, -0.79, -15.04, 2.13, 1.53, 7.03, repro,
2010-03-18,-0.67, -0.53, -12.93, 2.12, 1.51, 6.90, repro,
2010-03-19,-1.07, -0.90, -9.88, 2.09, 1.52, 6.92, repro,
2010-03-20,-0.47, -0.53, -9.97, 2.10, 1.51, 6.90, repro,
2010-03-21,-1.29, -1.36, -7.36, 2.11, 1.51, 6.94, repro,
2010-03-22,-2.66, 0.05, -11.45, 2.25, 1.62, 7.54, repro,
2010-03-23,-0.77, -1.55, -10.25, 2.09, 1.50, 6.86, repro,
2010-03-24,-0.38, -0.87, -10.34, 2.14, 1.54, 7.03, repro,
2010-03-25,-0.41, -0.11, -5.27, 2.15, 1.54, 7.08, repro,
2010-03-26,-0.66, -0.82, -8.29, 2.14, 1.53, 7.05, repro,
2010-03-27,-0.05, -0.90, -10.38, 2.13, 1.52, 6.96, repro,
2010-03-28,-3.32, -0.19, 3.21, 2.16, 1.54, 7.11, repro,
2010-03-29,-2.17, -2.48, -10.12, 2.15, 1.54, 7.05, repro,
2010-03-30,-1.40, -2.71, -2.28, 2.50, 1.78, 7.97, repro,
2010-03-31,-2.42, -0.49, -2.11, 2.32, 1.69, 7.80, repro,
2010-04-01,-0.31, -1.61, -5.68, 2.17, 1.53, 7.08, repro,
2010-04-02,-1.51, -3.92, -8.35, 2.23, 1.60, 7.34, repro,
2010-04-03,-1.17, -0.16, -7.60, 2.16, 1.54, 7.08, repro,
2010-04-04,-0.65, -2.06, -4.93, 2.16, 1.54, 7.05, repro,
2010-04-05,0.42, -1.60, 2.79, 2.16, 1.53, 7.06, repro,
2010-04-06,-0.53, -0.64, -9.05, 2.19, 1.56, 7.20, repro,
2010-04-07,-0.61, -0.69, -14.06, 2.23, 1.59, 7.36, repro,
2010-04-08,-0.57, -0.27, -7.76, 2.34, 1.67, 7.67, repro,
2010-04-09,-0.26, -1.21, -6.11, 2.27, 1.56, 7.18, repro,
2010-04-10,-0.84, -1.47, -9.85, 2.24, 1.55, 7.17, repro,
2010-04-11,-0.64, -1.80, -6.40, 2.16, 1.54, 7.07, repro,
2010-04-12,-0.88, -0.68, -6.66, 2.26, 1.59, 7.30, repro,
2010-04-13,-1.94, -1.61, -6.04, 2.15, 1.55, 6.99, repro,
2010-04-14,-0.82, -0.28, -13.98, 2.19, 1.56, 7.23, repro,
2010-04-15,-0.71, -1.05, -7.20, 2.19, 1.54, 7.21, repro,
2010-04-16,-1.58, -1.25, -8.64, 2.36, 1.67, 7.92, repro,
2010-04-17,-0.65, -1.01, -11.25, 2.19, 1.54, 7.14, repro,
2010-04-18,-0.90, -0.88, -11.39, 2.21, 1.57, 7.28, repro,
2010-04-19,-0.64, -1.17, 0.48, 2.16, 1.56, 7.06, repro,
2010-04-20,-0.87, -1.94, -3.14, 2.20, 1.59, 7.25, repro,
2010-04-21,-0.96, -2.01, -4.35, 2.24, 1.59, 7.39, repro,
2010-04-22,-1.45, -1.54, -7.72, 2.18, 1.54, 7.12, repro,
2010-04-23,-0.98, -1.44, -4.08, 2.16, 1.52, 7.02, repro,
2010-04-24,-3.30, 1.15, 11.68, 2.72, 1.94, 8.85, repro,
2010-04-25,-1.09, -0.95, -8.41, 2.34, 1.69, 7.63, repro,
2010-04-26,-1.35, -1.32, -4.75, 2.11, 1.51, 6.94, repro,
2010-04-27,-2.35, -0.67, 1.85, 2.21, 1.54, 7.21, repro,
2010-04-28,0.02, 0.81, -0.51, 2.17, 1.53, 7.05, repro,
2010-04-29,-0.88, -0.41, -1.50, 2.23, 1.59, 7.21, repro,
2010-04-30,-0.53, -0.16, -5.87, 2.15, 1.55, 7.15, repro,
2010-05-01,0.27, -1.47, -9.46, 2.12, 1.52, 6.94, repro,
2010-05-02,-0.37, -0.83, -7.06, 2.15, 1.54, 7.03, repro,
2010-05-03,-1.70, -1.03, -4.41, 2.33, 1.66, 7.61, repro,
2010-05-04,1.07, 0.05, -13.50, 2.16, 1.54, 6.99, repro,
2010-05-05,0.05, -0.53, -14.06, 2.11, 1.50, 6.84, repro,
2010-05-06,-0.28, -1.10, -12.63, 2.11, 1.50, 6.87, repro,
2010-05-07,-0.10, 0.44, -10.36, 2.20, 1.57, 7.24, repro,
2010-05-08,-0.71, 1.02, -10.17, 2.20, 1.56, 7.19, repro,
2010-05-09,-0.68, -0.51, -7.80, 2.19, 1.55, 7.14, repro,
2010-05-10,-0.64, -0.48, -3.90, 2.13, 1.51, 6.88, repro,
2010-05-11,-0.41, -1.98, -8.47, 2.39, 1.75, 8.21, repro,
2010-05-12,-0.88, -0.20, -5.38, 2.28, 1.59, 7.38, repro,
2010-05-13,-0.94, 0.26, -10.17, 2.14, 1.52, 6.96, repro,
2010-05-14,-0.63, 0.08, -8.95, 2.22, 1.58, 7.19, repro,
2010-05-15,-0.44, -1.47, -16.97, 2.17, 1.55, 7.07, repro,
2010-05-16,-1.33, -1.92, -16.15, 2.19, 1.54, 7.07, repro,
2010-05-17,-2.32, 0.05, 1.92, 2.13, 1.51, 6.93, repro,
2010-05-18,0.01, -0.62, -5.82, 2.20, 1.55, 7.06, repro,
2010-05-19,-1.77, -0.93, -3.57, 2.37, 1.68, 7.62, repro,
2010-05-20,-2.03, -0.92, -8.33, 2.38, 1.63, 7.68, repro,
2010-05-21,-0.36, 0.36, -7.55, 2.19, 1.54, 7.12, repro,
2010-05-22,-0.41, -0.44, -6.24, 2.22, 1.56, 7.12, repro,
2010-05-23,1.07, -1.66, -7.07, 2.18, 1.53, 7.03, repro,
2010-05-24,-1.03, -0.61, -13.41, 2.18, 1.54, 7.04, repro,
2010-05-25,-0.70, -0.77, -13.97, 2.18, 1.54, 7.03, repro,
2010-05-26,-0.24, -1.80, -6.45, 2.13, 1.51, 6.88, repro,
2010-05-27,0.39, 0.33, -6.64, 2.39, 1.70, 7.62, repro,
2010-05-28,-0.23, -2.58, -11.53, 2.13, 1.51, 6.85, repro,
2010-05-29,0.53, 0.03, -12.78, 2.13, 1.52, 6.89, repro,
2010-05-30,-0.51, -1.24, -11.97, 2.13, 1.51, 6.85, repro,
2010-05-31,0.02, -0.85, -9.19, 2.18, 1.55, 7.06, repro,
2010-06-01,-1.06, -1.10, -7.07, 2.12, 1.51, 6.86, repro,
2010-06-02,1.49, -0.05, -1.90, 2.12, 1.51, 6.88, repro,
2010-06-03,-0.85, -0.99, -9.52, 2.13, 1.51, 6.88, repro,
2010-06-04,-1.41, -1.24, -7.89, 2.22, 1.60, 7.16, repro,
2010-06-05,0.84, -0.49, -16.00, 2.13, 1.52, 6.88, repro,
2010-06-06,2.41, -1.03, -8.60, 2.22, 1.60, 7.27, repro,
2010-06-07,-0.19, -0.74, -6.11, 2.12, 1.51, 6.88, repro,
2010-06-08,0.03, -0.55, -9.71, 2.12, 1.52, 6.86, repro,
2010-06-09,1.07, -0.28, -11.60, 2.22, 1.53, 7.03, repro,
2010-06-10,-0.02, -0.65, -7.32, 2.13, 1.51, 6.85, repro,
2010-06-11,0.33, -1.47, -12.46, 2.14, 1.51, 6.87, repro,
2010-06-12,-0.57, -1.40, -14.43, 2.37, 1.67, 7.68, repro,
2010-06-13,0.50, 0.13, -8.76, 2.17, 1.54, 7.05, repro,
2010-06-14,0.12, -1.22, -5.24, 2.13, 1.52, 6.90, repro,
2010-06-15,-0.26, -0.86, -5.34, 2.13, 1.51, 6.85, repro,
2010-06-16,0.33, -1.34, -12.16, 2.13, 1.52, 6.87, repro,
2010-06-17,0.94, -1.33, -8.98, 2.17, 1.55, 7.00, repro,
2010-06-18,-0.19, -0.38, -9.94, 2.17, 1.55, 7.04, repro,
2010-06-19,1.82, -1.45, -4.23, 2.14, 1.53, 6.94, repro,
2010-06-20,1.41, 0.10, -17.65, 2.12, 1.52, 6.86, repro,
2010-06-21,0.52, -2.00, -13.34, 2.13, 1.52, 6.88, repro,
2010-06-22,0.78, -1.64, -10.04, 2.13, 1.52, 6.88, repro,
2010-06-23,0.18, 0.68, -12.24, 2.12, 1.53, 6.92, repro,
2010-06-24,0.24, 0.11, -11.41, 2.16, 1.58, 7.09, repro,
2010-06-25,0.45, -0.95, -2.05, 2.18, 1.59, 7.14, repro,
2010-06-26,0.25, -0.00, -9.97, 2.12, 1.52, 6.87, repro,
2010-06-30,-0.47, -0.47, -8.97, 2.11, 1.53, 6.93, repro,
2010-07-01,0.35, -1.89, -0.98, 2.12, 1.53, 6.89, repro,
2010-07-02,-0.79, -1.01, -2.45, 2.10, 1.52, 6.87, repro,
2010-07-03,0.38, -0.49, -4.72, 2.11, 1.52, 6.87, repro,
2010-07-04,0.58, -0.95, -4.55, 2.10, 1.53, 6.90, repro,
2010-07-05,-0.63, -0.81, -1.78, 2.10, 1.52, 6.88, repro,
2010-07-06,-0.83, -1.10, -2.70, 2.26, 1.65, 7.48, repro,
2010-07-07,-0.25, -1.36, -2.67, 2.09, 1.52, 6.85, repro,
2010-07-08,2.20, -0.95, -8.25, 2.10, 1.52, 6.86, repro,
2010-07-09,2.07, 0.85, -9.06, 2.12, 1.53, 6.93, repro,
2010-07-10,0.68, -1.71, 2.95, 2.10, 1.53, 6.90, repro,
2010-07-11,0.39, -1.92, 10.60, 2.11, 1.54, 6.92, repro,
2010-07-12,-0.09, -2.03, 1.64, 2.11, 1.52, 6.88, repro,
2010-07-13,-0.84, -1.44, 2.33, 2.27, 1.73, 7.74, repro,
2010-07-14,0.20, -1.47, -7.37, 2.12, 1.53, 6.95, repro,
2010-07-15,0.50, -2.19, -3.48, 2.10, 1.53, 6.89, repro,
2010-07-16,1.43, 0.05, -6.04, 2.10, 1.54, 6.93, repro,
2010-07-17,-0.54, -0.75, -4.41, 2.10, 1.51, 6.84, repro,
2010-07-18,-1.22, -0.45, -5.74, 2.12, 1.53, 6.93, repro,
2010-07-19,-1.16, -1.34, -6.44, 2.26, 1.63, 7.41, repro,
2010-07-20,0.67, -2.68, -6.84, 2.10, 1.53, 6.91, repro,
2010-07-21,-0.20, -1.51, -8.62, 2.11, 1.53, 6.89, repro,
2010-07-22,-0.59, -0.37, -3.66, 2.10, 1.52, 6.85, repro,
2010-07-23,-1.97, 0.05, 2.11, 2.11, 1.52, 6.86, repro,
2010-07-24,-0.33, -1.49, -5.79, 2.11, 1.53, 6.89, repro,
2010-07-25,-0.03, -0.95, -4.67, 2.10, 1.53, 6.89, repro,
2010-07-26,1.45, -1.94, -3.53, 2.30, 1.67, 7.59, repro,
2010-07-27,0.66, -0.08, -7.76, 2.10, 1.53, 6.85, repro,
2010-07-28,-0.61, 0.39, -3.39, 2.10, 1.51, 6.80, repro,
2010-07-29,-1.14, -0.45, -6.27, 2.14, 1.58, 7.04, repro,
2010-07-30,0.91, -2.41, -10.77, 2.14, 1.58, 7.05, repro,
2010-07-31,-0.06, -1.24, -7.44, 2.09, 1.53, 6.81, repro,
2010-08-01,0.76, -1.17, -6.74, 2.21, 1.62, 7.18, repro,
2010-08-02,-0.59, -0.86, -4.60, 2.10, 1.52, 6.83, repro,
2010-08-03,0.48, -0.48, -4.49, 2.16, 1.56, 6.97, repro,
2010-08-04,-0.12, -0.85, -1.77, 2.17, 1.57, 7.04, repro,
2010-08-05,0.54, -1.04, -1.11, 2.11, 1.53, 6.87, repro,
2010-08-06,1.09, -1.28, -2.31, 2.08, 1.53, 6.82, repro,
2010-08-07,0.02, -0.96, 2.78, 2.10, 1.52, 6.84, repro,
2010-08-08,-0.23, 0.29, 6.22, 2.31, 1.64, 7.40, repro,
2010-08-09,-0.17, -0.20, 1.12, 2.12, 1.53, 6.91, repro,
2010-08-10,-1.43, -1.19, 3.86, 2.11, 1.54, 6.92, repro,
2010-08-11,-0.45, -1.90, 0.51, 2.09, 1.53, 6.85, repro,
2010-08-12,-0.06, -0.93, 0.19, 2.08, 1.52, 6.83, repro,
2010-08-13,0.01, -1.19, -1.07, 2.07, 1.50, 6.74, repro,
2010-08-14,-0.10, 0.04, -3.95, 2.31, 1.72, 7.77, repro,
2010-08-15,0.26, -1.27, -1.02, 2.11, 1.54, 6.95, repro,
2010-08-16,-0.54, -1.61, -2.17, 2.09, 1.53, 6.88, repro,
2010-08-17,0.30, -0.03, -0.56, 2.09, 1.53, 6.87, repro,
2010-08-18,-0.44, -0.65, 0.29, 2.14, 1.54, 6.91, repro,
2010-08-19,-0.99, -0.48, -5.15, 2.11, 1.55, 6.97, repro,
2010-08-20,-1.07, -1.99, -3.40, 2.09, 1.53, 6.90, repro,
2010-08-21,-0.25, -1.81, 4.54, 2.19, 1.60, 7.18, repro,
2010-08-22,0.28, -0.46, -1.32, 2.07, 1.53, 6.85, repro,
2010-08-23,-1.21, -0.40, -0.71, 2.07, 1.54, 6.81, repro,
2010-08-24,-0.61, 0.43, -4.57, 2.14, 1.53, 6.93, repro,
2010-08-25,-0.70, -0.76, -5.17, 2.09, 1.53, 6.85, repro,
2010-08-26,-0.10, -1.49, -3.81, 2.12, 1.57, 7.06, repro,
2010-08-27,-1.14, -2.51, -2.19, 2.15, 1.60, 7.13, repro,
2010-08-28,0.26, -2.50, 5.79, 2.03, 1.51, 6.75, repro,
2010-08-29,-0.36, -1.41, -0.80, 2.05, 1.51, 6.77, repro,
2010-08-30,-1.27, -1.30, 2.55, 2.07, 1.52, 6.79, repro,
2010-08-31,-0.66, -1.06, 3.14, 2.10, 1.52, 6.88, repro,
2010-09-01,-0.26, -0.71, 2.46, 2.06, 1.51, 6.80, repro,
2010-09-02,-1.47, -1.31, -0.84, 2.05, 1.51, 6.77, repro,
2010-09-03,-0.35, -1.89, -0.31, 2.12, 1.56, 6.97, repro,
2010-09-04,0.24, -0.90, -2.53, 2.06, 1.52, 6.83, repro,
2010-09-05,-1.63, -0.10, 2.95, 2.06, 1.51, 6.81, repro,
2010-09-06,-0.08, -1.45, -2.86, 2.04, 1.51, 6.74, repro,
2010-09-07,-0.40, -1.41, 3.15, 2.06, 1.51, 6.81, repro,
2010-09-08,0.07, -2.07, 1.97, 2.06, 1.51, 6.77, repro,
2010-09-09,0.10, -1.07, -0.61, 2.05, 1.51, 6.78, repro,
2010-09-10,-0.53, -0.99, 1.73, 2.12, 1.54, 6.90, repro,
2010-09-11,-0.56, -1.41, -5.08, 2.07, 1.56, 6.94, repro,
2010-09-12,0.91, -1.49, -6.44, 2.05, 1.51, 6.78, repro,
2010-09-13,0.91, -0.74, -7.05, 2.06, 1.51, 6.80, repro,
2010-09-14,-1.03, -0.84, -2.65, 2.04, 1.51, 6.77, repro,
2010-09-15,-2.48, 0.20, -0.33, 2.05, 1.52, 6.84, repro,
2010-09-16,-1.22, -0.06, 2.87, 2.04, 1.52, 6.79, repro,
2010-09-17,0.18, 0.15, 1.32, 2.04, 1.52, 6.81, repro,
2010-09-18,-1.13, 1.50, 4.70, 2.08, 1.54, 6.93, repro,
2010-09-19,-3.84, 0.98, 11.16, 2.13, 1.55, 7.12, repro,
2010-09-20,-1.27, -0.03, -0.04, 2.04, 1.52, 6.83, repro,
2010-09-21,-0.66, -2.15, 1.57, 2.07, 1.55, 7.00, repro,
2010-09-22,-0.03, -1.23, 1.75, 2.06, 1.55, 6.99, repro,
2010-09-23,1.04, -0.69, 0.31, 2.13, 1.57, 7.11, repro,
2010-09-24,-1.66, -1.59, -2.11, 2.07, 1.52, 6.88, repro,
2010-09-25,-0.44, -1.03, -5.95, 2.06, 1.51, 6.83, repro,
2010-09-26,-0.62, -0.07, -3.44, 2.05, 1.51, 6.83, repro,
2010-09-27,-1.59, -0.08, -1.16, 2.10, 1.56, 6.89, repro,
2010-09-28,0.88, 0.24, -0.04, 2.11, 1.57, 6.97, repro,
2010-09-29,-1.26, -1.31, -1.01, 2.07, 1.51, 6.86, repro,
2010-09-30,-0.56, -0.64, 5.51, 2.11, 1.53, 6.95, repro,
2010-10-01,-0.46, -0.22, 3.02, 2.10, 1.53, 6.98, repro,
2010-10-02,-0.95, -0.35, -0.39, 2.04, 1.51, 6.81, repro,
2010-10-03,1.00, -0.46, 1.01, 2.13, 1.60, 7.26, repro,
2010-10-04,-0.31, -0.36, -0.67, 2.17, 1.58, 7.16, repro,
2010-10-05,-1.67, -0.40, -1.91, 2.09, 1.53, 6.95, repro,
2010-10-06,-0.27, -1.30, -3.17, 2.06, 1.52, 6.84, repro,